Regional Weather Roundup
Issued by NWS

Home | Current Version | Previous Version | Text Only | Print | Product List | Glossary On
Versions: 1 2 3 4 5 6 7 8 9 10 11 12 13 14 15 16 17 18 19 20 21 22 23 24 25 26 27 28 29 30 31 32 33 34 35 36 37 38 39 40 41 42 43 44 45 46 47 48 49 50
334
ASUS45 KPSR 130410
RWRAZ

ARIZONA HOURLY REGIONAL WEATHER ROUNDUP
NATIONAL WEATHER SERVICE PHOENIX AZ
900 PM MST FRI FEB 12 2016

NOTE: FAIR INDICATES FEW OR NO CLOUDS BELOW 12,000 FEET WITH NO
SIGNIFICANT WEATHER AND/OR OBSTRUCTIONS TO VISIBILITY.

AZZ001>003-036-130500-
NORTHWEST ARIZONA

CITY           SKY/WX    TMP DP  RH WIND       PRES   REMARKS
BULLHEAD CITY  CLEAR     68  30  24 N6        30.09S
KINGMAN        CLEAR     44  25  47 SE3       30.20R
$$

AZZ004>008-015-016-018-130500-
NORTH CENTRAL ARIZONA

CITY           SKY/WX    TMP DP  RH WIND       PRES   REMARKS
GRAND CANYON   CLEAR     32  24  72 CALM      30.35R
WILLIAMS       CLEAR     41  18  38 S12       30.39S
PRESCOTT       CLEAR     51  24  34 S10       30.26S
FLAGSTAFF      CLEAR     32  19  58 CALM      30.37S
PAYSON         CLEAR     52  21  30 N3        30.29S
PAGE           CLEAR     46  31  55 CALM      30.29R
$$

AZZ009>014-017-130500-
NORTHEAST ARIZONA

CITY           SKY/WX    TMP DP  RH WIND       PRES   REMARKS
WINSLOW        PTCLDY    40  17  39 W3        30.29R
SAINT JOHNS    CLEAR     43  15  32 S7        30.30R
WINDOW ROCK    CLEAR     35   0  22 CALM      30.38R
SHOW LOW       CLEAR     39  16  38 CALM      30.36R
$$

AZZ023-130500-
GREATER PHOENIX AREA

CITY           SKY/WX    TMP DP  RH WIND       PRES   REMARKS
PHOENIX        CLEAR     69  31  24 SW6       30.04S
BUCKEYE        CLEAR     61  32  33 N10       30.07S
LUKE AFB       CLEAR     60  37  42 NW8       30.04S
DEER VALLEY    CLEAR     65  33  30 NE9       30.07R
SCOTTSDALE     CLEAR     70  32  24 N3        30.08S
MESA-GATEWAY   CLEAR     63  32  31 CALM      30.07S
CHANDLER       CLEAR     66  30  26 CALM      30.06S
$$

AZZ027-028-130500-
SOUTHWEST MARICOPA COUNTY AND PINAL COUNTY

CITY           SKY/WX    TMP DP  RH WIND       PRES   REMARKS
CASA GRANDE    CLEAR     59  27  29 CALM      30.08R
GILA BEND      FAIR      61  32  33 SE5       30.04S
$$

AZZ503-504-507>509-130500-
SOUTHEAST ARIZONA

CITY           SKY/WX    TMP DP  RH WIND       PRES   REMARKS
TUCSON         PTCLDY    67  23  19 S7        30.14R
DAVIS-MONTHAN  PTCLDY    61  25  24 S9        30.12R
NOGALES        MOCLDY    63  13  14 SW5       30.18R
SIERRA VISTA   MOCLDY    62   7  11 S9        30.23S
DOUGLAS        PTCLDY    62   6  11 E13       30.21R
SAFFORD        CLEAR     54  21  27 E6        30.17R
$$

AZZ020-021-025-026-031-130500-
SOUTHWEST ARIZONA

CITY           SKY/WX    TMP DP  RH WIND       PRES   REMARKS
YUMA           NOT AVBL
$$

CAZ031-033-041-043-047-048-061-130500-
SOUTHERN CALIFORNIA

CITY           SKY/WX    TMP DP  RH WIND       PRES   REMARKS
DOWNTOWN L.A.  CLEAR     62  50  64 CALM      30.05S
L.A. AIRPORT   PTCLDY    61  55  81 SW6       30.06S
SAN DIEGO      PTCLDY    65  50  58 CALM      30.08S
BURBANK        CLEAR     69  38  32 CALM      30.06S
ONTARIO        PTCLDY    68  39  34 W5        30.07R
RIVERSIDE      CLEAR     69  37  30 CALM      30.07R
PALM SPRINGS   CLEAR     71  29  21 W5        30.07S
EL CENTRO NAS  CLEAR     62  28  27 CALM      30.04S
IMPERIAL       CLEAR     65  34  31 CALM      30.02S
BLYTHE         CLEAR     62  28  27 NW6       30.05S
NEEDLES        CLEAR     64  24  21 W7        30.09R
$$

NVZ020-UTZ003-130500-
SOUTHERN NEVADA-UTAH

CITY           SKY/WX    TMP DP  RH WIND       PRES   REMARKS
LAS VEGAS      PTCLDY    62  25  24 SW6       30.12R
SALT LAKE CITY CLOUDY    30  28  92 CALM      30.33S FOG
$$

NMZ009-TXZ055-130500-
NEW MEXICO-WEST TEXAS

CITY           SKY/WX    TMP DP  RH WIND       PRES   REMARKS
ALBUQUERQUE    CLOUDY    49  19  30 CALM      30.31S
EL PASO        PTCLDY    52  16  24 CALM      30.25R
$$


........................KEY........................
SKY/WX - SKY CONDITION/WEATHER
TMP    - TEMPERATURE IN FAHRENHEIT
DP     - DEW POINT IN FAHRENHEIT
RH     - RELATIVE HUMIDITY IN PERCENT
WIND   - DIRECTION AND SPEED IN MILES PER HOUR (MPH)
VRB    - VARIABLE WIND DIRECTION
PRES   - MEAN SEA LEVEL PRESSURE IN INCHES OF MERCURY
         F - FALLING PRESSURE   R - RISING PRESSURE
         S - STEADY PRESSURE
VSB    - VISIBILITY IN MILES
HX     - HEAT INDEX IN FAHRENHEIT
WCI    - WIND CHILL INDEX IN FAHRENHEIT
TC     - TEMPERATURE IN CELSIUS WHICH IS ALSO KNOWN AS
         TEMPERATURE IN CENTIGRADE
AFB    - AIR FORCE BASE
         LUKE AFB IS LUKE AIR FORCE BASE
         DAVIS-MONTHAN IS DAVIS-MONTHAN AIR FORCE BASE
NAS    - NAVAL AIR STATION
         EL CENTRO NAS IS EL CENTRO NAVAL AIR STATION
N/A    - NOT AVAILABLE





USA.gov is the U.S. government's official web portal to all federal, state and local government web resources and services.